Weather History for Cozumel, Mexico

Change the Weather History Date:

Tuesday, July 30, 2013

  Actual Average Record
Temperature  
Mean Temperature 76 °F -  
Max Temperature 84 °F 90 °F 95 °F (2006)
Min Temperature 69 °F 76 °F 68 °F (2012)
Cooling Degree Days 12    
Growing Degree Days 26 (Base 50)    
Moisture  
Dew Point 74 °F    
Average Humidity 87    
Maximum Humidity 100    
Minimum Humidity 74    
Precipitation  
Precipitation 0.00 in - - ()
Sea Level Pressure  
Sea Level Pressure 30.06 in    
Wind  
Wind Speed 3 mph ()    
Max Wind Speed 12 mph    
Max Gust Speed -    
Visibility 7.5 miles    
Events      
Averages and records for this station are not official NWS values.
T = Trace of Precipitation, MM = Missing Value Source: Averaged Metar Reports

Daily Weather History Graph

Daily Weather History Graph

Search for Another Location

Airport:

Trip Planner

Search our weather history database for the weather conditions in past years. The results will help you decide how hot, cold, wet, or windy it might be!

Date:

Astronomy

Jul. 30, 2013 Rise Set
Actual Time 6:21 AM CDT 7:26 PM CDT
Civil Twilight 5:58 AM CDT 7:49 PM CDT
Nautical Twilight 5:30 AM CDT 8:17 PM CDT
Astronomical Twilight 5:01 AM CDT 8:46 PM CDT
Moon 12:33 AM CDT (7/30) 1:48 PM CDT (7/30)
Length of Visible Light 13h 51m
Length of Day
13h 04m
Last Quarter, 41% of the Moon is Illuminated
Jul 30
Last Quarter
Aug 6
New
Aug 14
First Quarter
Aug 20
Full
Aug 28
Last Quarter

Hourly Weather History & Observations

Time (CDT) Temp. Heat Index Dew Point Humidity Pressure Visibility Wind Dir Wind Speed Gust Speed Precip Events Conditions
12:40 AM 75.2 °F - 73.4 °F 94% 30.07 in 7.0 mi Calm Calm - N/A   Scattered Clouds
1:49 AM 73.4 °F - 71.6 °F 94% 30.07 in 7.0 mi Calm Calm - N/A   Scattered Clouds
2:53 AM 71.6 °F - 71.6 °F 100% 30.04 in 7.0 mi Calm Calm - N/A   Scattered Clouds
3:40 AM 71.6 °F - 71.6 °F 100% 30.06 in 7.0 mi Calm Calm - N/A   Scattered Clouds
4:40 AM 69.8 °F - 69.8 °F 100% 30.02 in 7.0 mi Calm Calm - N/A   Scattered Clouds
5:40 AM 71.6 °F - 71.6 °F 100% 30.04 in 7.0 mi ENE 4.6 mph - N/A   Scattered Clouds
6:40 AM 73.4 °F - 71.6 °F 94% 30.04 in 7.0 mi Calm Calm - N/A   Scattered Clouds
7:44 AM 77.0 °F - 75.2 °F 94% 30.07 in 8.0 mi ENE 4.6 mph - N/A   Scattered Clouds
8:45 AM 80.6 °F 86.2 °F 75.2 °F 84% 30.08 in 8.0 mi ENE 11.5 mph - N/A   Scattered Clouds
9:57 AM 82.4 °F 89.5 °F 75.2 °F 79% 30.13 in 8.0 mi NE 8.1 mph - N/A   Scattered Clouds
10:56 AM 84.2 °F 92.3 °F 75.2 °F 74% 30.10 in 8.0 mi ENE 10.4 mph - N/A   Scattered Clouds
11:45 AM 84.2 °F 92.3 °F 75.2 °F 74% 30.10 in 8.0 mi NNE 8.1 mph - N/A   Scattered Clouds
12:53 PM 80.6 °F 86.2 °F 75.2 °F 84% 30.07 in 8.0 mi ENE 10.4 mph - N/A   Mostly Cloudy
1:53 PM 84.2 °F 92.3 °F 75.2 °F 74% 30.07 in 8.0 mi NE 6.9 mph - N/A   Mostly Cloudy
2:48 PM 84.2 °F 92.3 °F 75.2 °F 74% 30.05 in 8.0 mi NE 10.4 mph - N/A   Scattered Clouds
3:49 PM 82.4 °F 88.2 °F 73.4 °F 74% 30.06 in 8.0 mi East 6.9 mph - N/A   Scattered Clouds
4:48 PM 82.4 °F 88.2 °F 73.4 °F 74% 30.02 in 8.0 mi East 6.9 mph - N/A   Scattered Clouds
5:41 PM 82.4 °F 89.5 °F 75.2 °F 79% 30.02 in 8.0 mi ENE 10.4 mph - N/A   Partly Cloudy
6:45 PM 80.6 °F 86.2 °F 75.2 °F 84% 30.02 in 8.0 mi ENE 10.4 mph - N/A   Partly Cloudy
7:48 PM 78.8 °F - 73.4 °F 83% 30.04 in 7.0 mi ENE 4.6 mph - N/A   Partly Cloudy
8:41 PM 78.8 °F - 73.4 °F 83% 30.06 in 7.0 mi ENE 4.6 mph - N/A   Scattered Clouds
9:42 PM 77.0 °F - 73.4 °F 89% 30.09 in 7.0 mi Calm Calm - N/A   Partly Cloudy
10:47 PM 75.2 °F - 73.4 °F 94% 30.07 in 7.0 mi ESE 3.5 mph - N/A   Partly Cloudy
11:43 PM 73.4 °F - 73.4 °F 100% 30.07 in 7.0 mi Calm Calm - N/A   Partly Cloudy